N337QS MMSD-KSDL

Flight info

Callsign N337QS
Flight time 1h 53m
Altitude 40000
Route ELURO J92 TUS SUNSS8
Aircraft E55P/M-SBDGRW/LB2

Departure

Time 2026-04-23 11:11
Airport Los Cabos International Airport (MMSD)

Arrival

Time 2026-04-23 13:05
Airport Scottsdale Airport (KSDL)
Time Latitude Longitude Altitude Speed Heading
2026-04-23 10:22 23.16486 -109.71852 354 ft 0 kts 355°
2026-04-23 11:05 23.16492 -109.71854 354 ft 3 kts 339°
2026-04-23 11:05 23.16504 -109.71872 354 ft 2 kts 278°
2026-04-23 11:06 23.16471 -109.71915 358 ft 9 kts 176°
2026-04-23 11:06 23.16389 -109.71906 359 ft 12 kts 175°
2026-04-23 11:06 23.16308 -109.71901 359 ft 9 kts 197°
2026-04-23 11:07 23.16281 -109.71947 362 ft 6 kts 278°
2026-04-23 11:07 23.16324 -109.71984 364 ft 11 kts 353°
2026-04-23 11:07 23.16414 -109.71994 363 ft 13 kts 354°
2026-04-23 11:07 23.16503 -109.72002 362 ft 10 kts 354°
2026-04-23 11:08 23.16578 -109.72012 361 ft 9 kts 345°
2026-04-23 11:08 23.16610 -109.72041 362 ft 4 kts 286°
2026-04-23 11:08 23.16611 -109.72053 363 ft 0 kts 268°
2026-04-23 11:09 23.16611 -109.72063 363 ft 4 kts 266°
2026-04-23 11:09 23.16603 -109.72120 367 ft 9 kts 250°
2026-04-23 11:10 23.16566 -109.72179 371 ft 8 kts 236°
2026-04-23 11:10 23.16523 -109.72227 374 ft 8 kts 188°
2026-04-23 11:10 23.16407 -109.72216 376 ft 43 kts 174°
2026-04-23 11:10 23.15846 -109.72150 371 ft 116 kts 173°
2026-04-23 11:11 23.14897 -109.72034 594 ft 151 kts 174°
2026-04-23 11:11 23.13796 -109.71911 1161 ft 169 kts 174°
2026-04-23 11:11 23.12559 -109.71766 1657 ft 192 kts 175°
2026-04-23 11:11 23.11172 -109.71590 2311 ft 207 kts 175°
2026-04-23 11:12 23.09712 -109.71458 3054 ft 216 kts 174°
2026-04-23 11:12 23.08200 -109.71279 3816 ft 224 kts 172°
2026-04-23 11:12 23.06622 -109.71069 4493 ft 236 kts 174°
2026-04-23 11:12 23.04954 -109.70982 5214 ft 244 kts 192°
2026-04-23 11:13 23.03496 -109.71812 5994 ft 244 kts 229°
2026-04-23 11:13 23.02824 -109.73447 6851 ft 243 kts 266°
2026-04-23 11:13 23.03056 -109.75220 7732 ft 242 kts 284°
2026-04-23 11:13 23.03742 -109.76913 8452 ft 250 kts 299°
2026-04-23 11:14 23.04692 -109.78537 9042 ft 262 kts 302°
2026-04-23 11:14 23.05756 -109.80183 9706 ft 270 kts 305°
2026-04-23 11:14 23.06914 -109.81804 10403 ft 275 kts 305°
2026-04-23 11:14 23.08045 -109.83478 11092 ft 280 kts 303°
2026-04-23 11:15 23.09196 -109.85209 11772 ft 286 kts 304°
2026-04-23 11:15 23.10379 -109.86955 12390 ft 293 kts 304°
2026-04-23 11:15 23.11581 -109.88734 13083 ft 296 kts 304°
2026-04-23 11:15 23.12930 -109.90427 13737 ft 303 kts 320°
2026-04-23 11:16 23.14754 -109.91591 14447 ft 306 kts 325°
2026-04-23 11:16 23.16552 -109.92806 15117 ft 308 kts 326°
2026-04-23 11:16 23.18408 -109.94032 15768 ft 310 kts 325°
2026-04-23 11:16 23.20231 -109.95240 16412 ft 312 kts 326°
2026-04-23 11:17 23.22093 -109.96481 17000 ft 315 kts 326°
2026-04-23 11:17 23.23963 -109.97718 17572 ft 318 kts 326°
2026-04-23 11:17 23.25850 -109.98973 18142 ft 321 kts 326°
2026-04-23 11:17 23.27789 -110.00262 18679 ft 324 kts 326°
2026-04-23 11:18 23.29711 -110.01539 19210 ft 328 kts 326°
2026-04-23 11:18 23.31676 -110.02845 19738 ft 330 kts 326°
2026-04-23 11:18 23.33621 -110.04138 20235 ft 333 kts 326°
2026-04-23 11:18 23.35616 -110.05465 20745 ft 336 kts 326°
2026-04-23 11:19 23.37618 -110.06799 21247 ft 338 kts 326°
2026-04-23 11:19 23.39616 -110.08129 21670 ft 342 kts 326°
2026-04-23 11:19 23.41656 -110.09486 22142 ft 344 kts 326°
2026-04-23 11:19 23.43706 -110.10851 22608 ft 346 kts 326°
2026-04-23 11:20 23.45773 -110.12228 23068 ft 349 kts 326°
2026-04-23 11:20 23.47853 -110.13614 23487 ft 352 kts 326°
2026-04-23 11:20 23.49927 -110.14993 23958 ft 353 kts 326°
2026-04-23 11:20 23.52049 -110.16409 24425 ft 355 kts 326°
2026-04-23 11:21 23.54084 -110.17889 24855 ft 355 kts 316°
2026-04-23 11:21 23.55817 -110.19782 25372 ft 353 kts 313°
2026-04-23 11:21 23.57568 -110.21661 25956 ft 351 kts 313°
2026-04-23 11:21 23.59290 -110.23525 26520 ft 349 kts 313°
2026-04-23 11:22 23.60997 -110.25370 27064 ft 347 kts 312°
2026-04-23 11:22 23.62709 -110.27219 27621 ft 345 kts 312°
2026-04-23 11:22 23.64394 -110.29045 28119 ft 344 kts 312°
2026-04-23 11:22 23.66096 -110.30887 28614 ft 343 kts 312°
2026-04-23 11:23 23.67797 -110.32729 29119 ft 342 kts 312°
2026-04-23 11:23 23.69477 -110.34546 29613 ft 340 kts 312°
2026-04-23 11:23 23.71140 -110.36352 30111 ft 338 kts 311°
2026-04-23 11:23 23.72804 -110.38150 30612 ft 335 kts 311°
2026-04-23 11:24 23.74429 -110.39915 31038 ft 334 kts 311°
2026-04-23 11:24 23.76077 -110.41703 31464 ft 333 kts 311°
2026-04-23 11:24 23.77719 -110.43485 31917 ft 331 kts 311°
2026-04-23 11:24 23.79347 -110.45252 32393 ft 328 kts 311°
2026-04-23 11:25 23.80943 -110.46985 32826 ft 326 kts 311°
2026-04-23 11:25 23.82551 -110.48731 33257 ft 325 kts 310°
2026-04-23 11:25 23.84152 -110.50474 33714 ft 324 kts 311°
2026-04-23 11:25 23.85743 -110.52206 34198 ft 322 kts 311°
2026-04-23 11:26 23.87321 -110.53924 34690 ft 319 kts 311°
2026-04-23 11:26 23.88904 -110.55591 35148 ft 320 kts 318°
2026-04-23 11:26 23.90940 -110.56602 35505 ft 334 kts 345°
2026-04-23 11:26 23.93290 -110.56704 35978 ft 337 kts 352°
2026-04-23 11:27 23.95617 -110.56806 36442 ft 334 kts 351°
2026-04-23 11:27 23.97964 -110.56930 36816 ft 334 kts 351°
2026-04-23 11:27 24.00292 -110.57058 37192 ft 333 kts 351°
2026-04-23 11:27 24.02607 -110.57186 37594 ft 332 kts 351°
2026-04-23 11:28 24.04933 -110.57318 37998 ft 330 kts 351°
2026-04-23 11:28 24.07251 -110.57446 38413 ft 328 kts 351°
2026-04-23 11:28 24.09543 -110.57575 38802 ft 327 kts 351°
2026-04-23 11:28 24.11798 -110.57700 39179 ft 326 kts 351°
2026-04-23 11:29 24.14096 -110.57827 39558 ft 325 kts 351°
2026-04-23 11:29 24.16350 -110.57954 39906 ft 325 kts 351°
2026-04-23 11:29 24.18628 -110.58083 39947 ft 333 kts 351°
2026-04-23 11:30 24.23397 -110.58353 39963 ft 348 kts 351°
2026-04-23 11:30 24.28356 -110.58631 39957 ft 364 kts 351°
2026-04-23 11:31 24.33507 -110.58920 39952 ft 378 kts 351°
2026-04-23 11:31 24.38896 -110.59222 39947 ft 392 kts 351°
2026-04-23 11:32 24.44437 -110.59534 39944 ft 404 kts 352°
2026-04-23 11:32 24.50085 -110.59849 39940 ft 410 kts 352°
2026-04-23 11:33 24.55803 -110.60169 39945 ft 410 kts 351°
2026-04-23 11:33 24.61500 -110.60491 39944 ft 410 kts 351°
2026-04-23 11:34 24.67225 -110.60814 39946 ft 410 kts 351°
2026-04-23 11:34 24.72902 -110.61134 39947 ft 410 kts 351°
2026-04-23 11:35 24.78595 -110.61455 39944 ft 409 kts 351°
2026-04-23 11:35 24.84293 -110.61780 39945 ft 409 kts 351°
2026-04-23 11:36 24.90005 -110.62101 39943 ft 409 kts 351°
2026-04-23 11:36 24.95681 -110.62422 39946 ft 410 kts 351°
2026-04-23 11:37 25.01405 -110.62749 39951 ft 410 kts 351°
2026-04-23 11:37 25.07086 -110.63071 39954 ft 410 kts 351°
2026-04-23 11:38 25.12798 -110.63397 39958 ft 410 kts 351°
2026-04-23 11:38 25.18508 -110.63722 39960 ft 410 kts 351°
2026-04-23 11:39 25.24205 -110.64046 39960 ft 410 kts 351°
2026-04-23 11:39 25.29906 -110.64371 39961 ft 411 kts 351°
2026-04-23 11:40 25.35619 -110.64696 39960 ft 411 kts 351°
2026-04-23 11:40 25.41358 -110.65023 39963 ft 411 kts 351°
2026-04-23 11:41 25.47071 -110.65350 39971 ft 412 kts 351°
2026-04-23 11:41 25.52803 -110.65677 39969 ft 413 kts 351°
2026-04-23 11:42 25.58583 -110.66007 39965 ft 415 kts 350°
2026-04-23 11:42 25.64342 -110.66338 39960 ft 416 kts 350°
2026-04-23 11:43 25.70144 -110.66670 39955 ft 417 kts 350°
2026-04-23 11:43 25.75944 -110.67005 39949 ft 418 kts 350°
2026-04-23 11:44 25.81782 -110.67342 39950 ft 418 kts 350°
2026-04-23 11:44 25.87571 -110.67673 39957 ft 418 kts 350°
2026-04-23 11:45 25.93415 -110.68009 39953 ft 419 kts 350°
2026-04-23 11:45 25.99212 -110.68344 39950 ft 419 kts 350°
2026-04-23 11:46 26.05052 -110.68681 39947 ft 419 kts 350°
2026-04-23 11:46 26.10887 -110.69017 39948 ft 420 kts 350°
2026-04-23 11:47 26.16734 -110.69357 39941 ft 420 kts 349°
2026-04-23 11:47 26.22575 -110.69694 39935 ft 421 kts 350°
2026-04-23 11:48 26.28438 -110.70034 39931 ft 421 kts 349°
2026-04-23 11:48 26.34283 -110.70373 39932 ft 421 kts 349°
2026-04-23 11:49 26.40150 -110.70715 39931 ft 421 kts 349°
2026-04-23 11:49 26.46026 -110.71056 39917 ft 422 kts 349°
2026-04-23 11:50 26.51891 -110.71397 39908 ft 422 kts 349°
2026-04-23 11:50 26.57781 -110.71740 39913 ft 421 kts 349°
2026-04-23 11:51 26.63632 -110.72082 39911 ft 421 kts 349°
2026-04-23 11:51 26.69481 -110.72423 39915 ft 421 kts 349°
2026-04-23 11:52 26.75348 -110.72765 39915 ft 420 kts 349°
2026-04-23 11:52 26.81181 -110.73106 39921 ft 421 kts 349°
2026-04-23 11:53 26.87024 -110.73449 39925 ft 421 kts 349°
2026-04-23 11:53 26.92885 -110.73792 39911 ft 422 kts 348°
2026-04-23 11:54 26.98770 -110.74137 39910 ft 422 kts 348°
2026-04-23 11:54 27.04629 -110.74482 39908 ft 421 kts 348°
2026-04-23 11:55 27.10483 -110.74825 39905 ft 420 kts 348°
2026-04-23 11:55 27.16337 -110.75170 39910 ft 420 kts 348°
2026-04-23 11:56 27.22183 -110.75515 39907 ft 420 kts 348°
2026-04-23 11:56 27.28012 -110.75858 39919 ft 420 kts 348°
2026-04-23 11:57 27.33848 -110.76203 39923 ft 421 kts 348°
2026-04-23 11:57 27.39696 -110.76550 39908 ft 422 kts 348°
2026-04-23 11:58 27.45577 -110.76897 39909 ft 421 kts 348°
2026-04-23 11:58 27.51454 -110.77244 39901 ft 421 kts 348°
2026-04-23 11:59 27.57332 -110.77592 39900 ft 420 kts 348°
2026-04-23 11:59 27.63172 -110.77939 39904 ft 419 kts 348°
2026-04-23 12:00 27.69009 -110.78287 39905 ft 419 kts 348°
2026-04-23 12:00 27.74822 -110.78632 39906 ft 418 kts 348°
2026-04-23 12:01 27.80625 -110.78976 39913 ft 418 kts 348°
2026-04-23 12:01 27.86464 -110.79322 39924 ft 418 kts 347°
2026-04-23 12:02 27.92250 -110.79669 39924 ft 418 kts 347°
2026-04-23 12:02 27.98045 -110.80016 39923 ft 418 kts 347°
2026-04-23 12:03 28.03886 -110.80366 39925 ft 417 kts 347°
2026-04-23 12:03 28.09680 -110.80712 39922 ft 418 kts 347°
2026-04-23 12:04 28.15458 -110.81061 39932 ft 417 kts 347°
2026-04-23 12:04 28.21258 -110.81407 39931 ft 417 kts 347°
2026-04-23 12:05 28.27088 -110.81759 39936 ft 417 kts 347°
2026-04-23 12:05 28.32888 -110.82107 39936 ft 417 kts 347°
2026-04-23 12:06 28.38718 -110.82456 39938 ft 417 kts 347°
2026-04-23 12:06 28.47424 -110.82982 39949 ft 417 kts 347°
2026-04-23 12:07 28.53201 -110.83332 39942 ft 418 kts 347°
2026-04-23 12:07 28.59025 -110.83683 39937 ft 418 kts 347°
2026-04-23 12:08 28.64865 -110.84035 39937 ft 418 kts 347°
2026-04-23 12:08 28.70670 -110.84385 39925 ft 418 kts 347°
2026-04-23 12:09 28.76498 -110.84739 39929 ft 418 kts 346°
2026-04-23 12:09 28.82327 -110.85093 39926 ft 417 kts 346°
2026-04-23 12:10 28.88099 -110.85445 39940 ft 416 kts 346°
2026-04-23 12:10 28.93894 -110.85799 39953 ft 416 kts 346°
2026-04-23 12:11 28.99655 -110.86149 39951 ft 416 kts 346°
2026-04-23 12:11 29.05457 -110.86500 39959 ft 416 kts 346°
2026-04-23 12:12 29.11258 -110.86855 39962 ft 416 kts 346°
2026-04-23 12:12 29.17035 -110.87210 39962 ft 416 kts 346°
2026-04-23 12:13 29.22806 -110.87562 39965 ft 416 kts 346°
2026-04-23 12:13 29.28636 -110.87917 39949 ft 415 kts 346°
2026-04-23 12:14 29.34417 -110.88274 39944 ft 414 kts 346°
2026-04-23 12:14 29.40188 -110.88628 39958 ft 414 kts 346°
2026-04-23 12:15 29.45941 -110.88982 39956 ft 415 kts 346°
2026-04-23 12:15 29.51696 -110.89334 39945 ft 415 kts 345°
2026-04-23 12:16 29.57470 -110.89690 39949 ft 415 kts 345°
2026-04-23 12:16 29.63240 -110.90047 39961 ft 415 kts 345°
2026-04-23 12:17 29.69058 -110.90405 39973 ft 415 kts 345°
2026-04-23 12:17 29.74820 -110.90761 39964 ft 415 kts 345°
2026-04-23 12:18 29.80626 -110.91120 39966 ft 414 kts 345°
2026-04-23 12:18 29.86392 -110.91477 39982 ft 414 kts 345°
2026-04-23 12:19 29.92130 -110.91834 39993 ft 415 kts 345°
2026-04-23 12:19 29.97931 -110.92195 40002 ft 415 kts 345°
2026-04-23 12:20 30.03677 -110.92549 40016 ft 415 kts 345°
2026-04-23 12:20 30.09455 -110.92910 40028 ft 415 kts 345°
2026-04-23 12:21 30.15267 -110.93273 40028 ft 416 kts 345°
2026-04-23 12:21 30.21027 -110.93632 40024 ft 416 kts 345°
2026-04-23 12:22 30.26820 -110.93995 40030 ft 415 kts 345°
2026-04-23 12:22 30.32604 -110.94354 40038 ft 415 kts 345°
2026-04-23 12:23 30.38410 -110.94720 40039 ft 415 kts 345°
2026-04-23 12:23 30.44164 -110.95078 40035 ft 416 kts 345°
2026-04-23 12:24 30.49970 -110.95445 40040 ft 416 kts 344°
2026-04-23 12:24 30.55758 -110.95808 40043 ft 416 kts 344°
2026-04-23 12:25 30.61583 -110.96174 40050 ft 417 kts 344°
2026-04-23 12:25 30.64485 -110.96354 39912 ft 418 kts 344°
2026-04-23 12:25 30.67391 -110.96539 39591 ft 419 kts 344°
2026-04-23 12:26 30.70308 -110.96723 39160 ft 415 kts 345°
2026-04-23 12:26 30.73151 -110.96902 38532 ft 412 kts 344°
2026-04-23 12:26 30.76019 -110.97083 37857 ft 412 kts 344°
2026-04-23 12:26 30.78907 -110.97270 37219 ft 415 kts 344°
2026-04-23 12:27 30.81794 -110.97376 36590 ft 425 kts 349°
2026-04-23 12:27 30.84805 -110.97214 35978 ft 429 kts 350°
2026-04-23 12:27 30.87781 -110.97079 35374 ft 431 kts 350°
2026-04-23 12:27 30.90760 -110.96945 34757 ft 433 kts 350°
2026-04-23 12:28 30.93774 -110.96804 34111 ft 436 kts 351°
2026-04-23 12:28 30.96810 -110.96665 33449 ft 438 kts 351°
2026-04-23 12:28 30.99897 -110.96526 32854 ft 440 kts 351°
2026-04-23 12:28 31.02955 -110.96389 32315 ft 441 kts 351°
2026-04-23 12:29 31.06002 -110.96249 32120 ft 442 kts 352°
2026-04-23 12:29 31.09089 -110.96102 32090 ft 442 kts 351°
2026-04-23 12:29 31.15244 -110.95819 32089 ft 442 kts 351°
2026-04-23 12:30 31.21370 -110.95538 32087 ft 442 kts 351°
2026-04-23 12:30 31.27495 -110.95259 32083 ft 441 kts 351°
2026-04-23 12:31 31.33651 -110.94974 32068 ft 442 kts 351°
2026-04-23 12:31 31.39794 -110.94692 32055 ft 441 kts 351°
2026-04-23 12:32 31.45922 -110.94415 32051 ft 442 kts 351°
2026-04-23 12:32 31.52070 -110.94133 32045 ft 441 kts 351°
2026-04-23 12:33 31.58174 -110.93855 32049 ft 441 kts 351°
2026-04-23 12:33 31.64321 -110.93573 32052 ft 441 kts 351°
2026-04-23 12:34 31.70464 -110.93288 32051 ft 441 kts 351°
2026-04-23 12:34 31.73534 -110.93150 31918 ft 444 kts 351°
2026-04-23 12:34 31.76656 -110.93011 31552 ft 450 kts 351°
2026-04-23 12:35 31.79778 -110.92866 31109 ft 450 kts 351°
2026-04-23 12:35 31.82905 -110.92723 30537 ft 453 kts 352°
2026-04-23 12:35 31.86056 -110.92578 29965 ft 456 kts 352°
2026-04-23 12:35 31.89239 -110.92432 29393 ft 458 kts 353°
2026-04-23 12:36 31.92424 -110.92282 28814 ft 461 kts 353°
2026-04-23 12:36 31.95608 -110.92136 28225 ft 462 kts 353°
2026-04-23 12:36 31.98835 -110.91986 27639 ft 462 kts 353°
2026-04-23 12:36 32.02057 -110.91835 27047 ft 461 kts 353°
2026-04-23 12:37 32.05222 -110.91688 26478 ft 458 kts 354°
2026-04-23 12:37 32.08394 -110.91546 26097 ft 452 kts 353°
2026-04-23 12:37 32.11409 -110.91953 26055 ft 430 kts 337°
2026-04-23 12:37 32.14341 -110.92774 26042 ft 429 kts 339°
2026-04-23 12:38 32.17208 -110.93559 26038 ft 425 kts 338°
2026-04-23 12:38 32.20099 -110.94333 26038 ft 422 kts 338°
2026-04-23 12:38 32.22976 -110.95118 26035 ft 420 kts 338°
2026-04-23 12:38 32.25786 -110.95879 25975 ft 420 kts 338°
2026-04-23 12:39 32.28656 -110.96660 25624 ft 426 kts 339°
2026-04-23 12:39 32.31560 -110.97456 25126 ft 431 kts 339°
2026-04-23 12:39 32.34479 -110.98242 24634 ft 429 kts 339°
2026-04-23 12:39 32.37391 -110.99032 24116 ft 424 kts 339°
2026-04-23 12:40 32.40252 -110.99809 23575 ft 420 kts 339°
2026-04-23 12:40 32.43071 -111.00577 23037 ft 416 kts 340°
2026-04-23 12:40 32.45886 -111.01341 22497 ft 413 kts 340°
2026-04-23 12:40 32.48662 -111.02093 21953 ft 409 kts 340°
2026-04-23 12:41 32.51425 -111.02848 21430 ft 405 kts 340°
2026-04-23 12:41 32.54155 -111.03593 20910 ft 401 kts 340°
2026-04-23 12:41 32.56841 -111.04324 20400 ft 397 kts 340°
2026-04-23 12:41 32.59535 -111.05061 19868 ft 394 kts 340°
2026-04-23 12:42 32.62207 -111.05790 19329 ft 391 kts 340°
2026-04-23 12:42 32.64829 -111.06504 18799 ft 388 kts 340°
2026-04-23 12:42 32.67449 -111.07221 18261 ft 385 kts 340°
2026-04-23 12:42 32.70032 -111.07928 17723 ft 381 kts 340°
2026-04-23 12:43 32.72596 -111.08633 17184 ft 378 kts 341°
2026-04-23 12:43 32.75143 -111.09345 16646 ft 373 kts 339°
2026-04-23 12:43 32.77381 -111.10733 16077 ft 351 kts 314°
2026-04-23 12:43 32.78966 -111.12807 15553 ft 339 kts 309°
2026-04-23 12:44 32.80564 -111.14845 15005 ft 330 kts 308°
2026-04-23 12:44 32.82084 -111.16822 14463 ft 322 kts 309°
2026-04-23 12:44 32.83568 -111.18749 13922 ft 316 kts 309°
2026-04-23 12:44 32.85045 -111.20663 13393 ft 310 kts 309°
2026-04-23 12:45 32.86476 -111.22520 12996 ft 302 kts 309°
2026-04-23 12:45 32.87879 -111.24337 12598 ft 297 kts 309°
2026-04-23 12:45 32.89258 -111.26129 12194 ft 292 kts 309°
2026-04-23 12:45 32.90629 -111.27913 11772 ft 289 kts 309°
2026-04-23 12:46 32.91974 -111.29661 11356 ft 286 kts 309°
2026-04-23 12:46 32.93317 -111.31404 10938 ft 284 kts 309°
2026-04-23 12:46 32.94623 -111.33103 10524 ft 282 kts 309°
2026-04-23 12:46 32.95947 -111.34828 10112 ft 280 kts 309°
2026-04-23 12:47 32.97249 -111.36525 9719 ft 278 kts 309°
2026-04-23 12:47 32.98553 -111.38224 9341 ft 277 kts 309°
2026-04-23 12:47 32.99847 -111.39912 8972 ft 274 kts 310°
2026-04-23 12:47 33.01124 -111.41576 8645 ft 271 kts 310°
2026-04-23 12:48 33.02378 -111.43211 8322 ft 264 kts 310°
2026-04-23 12:48 33.03592 -111.44793 8002 ft 258 kts 310°
2026-04-23 12:48 33.04794 -111.46365 7675 ft 251 kts 310°
2026-04-23 12:48 33.05820 -111.47991 7353 ft 244 kts 299°
2026-04-23 12:49 33.06678 -111.49694 7067 ft 238 kts 300°
2026-04-23 12:49 33.07511 -111.51354 7011 ft 230 kts 299°
2026-04-23 12:49 33.08326 -111.52966 7009 ft 223 kts 299°
2026-04-23 12:49 33.09121 -111.54539 7000 ft 217 kts 299°
2026-04-23 12:50 33.09893 -111.56062 7000 ft 211 kts 299°
2026-04-23 12:50 33.10644 -111.57535 7001 ft 207 kts 300°
2026-04-23 12:50 33.11389 -111.58995 7006 ft 205 kts 300°
2026-04-23 12:50 33.12125 -111.60446 7003 ft 205 kts 300°
2026-04-23 12:51 33.12868 -111.61916 7008 ft 206 kts 300°
2026-04-23 12:51 33.13609 -111.63376 7008 ft 206 kts 300°
2026-04-23 12:51 33.14347 -111.64841 7013 ft 207 kts 300°
2026-04-23 12:51 33.15086 -111.66312 7010 ft 208 kts 299°
2026-04-23 12:52 33.15831 -111.67790 7014 ft 208 kts 299°
2026-04-23 12:52 33.16582 -111.69270 7013 ft 209 kts 299°
2026-04-23 12:52 33.17335 -111.70760 7012 ft 210 kts 299°
2026-04-23 12:52 33.18093 -111.72253 7010 ft 210 kts 299°
2026-04-23 12:53 33.18852 -111.73747 7010 ft 210 kts 299°
2026-04-23 12:53 33.19602 -111.75225 7007 ft 211 kts 299°
2026-04-23 12:53 33.20367 -111.76730 6888 ft 211 kts 299°
2026-04-23 12:53 33.21128 -111.78235 6636 ft 209 kts 298°
2026-04-23 12:54 33.21871 -111.79697 6397 ft 209 kts 299°
2026-04-23 12:54 33.22633 -111.81194 6156 ft 209 kts 299°
2026-04-23 12:54 33.23383 -111.82680 6007 ft 208 kts 299°
2026-04-23 12:54 33.24133 -111.84168 5993 ft 209 kts 299°
2026-04-23 12:55 33.24876 -111.85642 5994 ft 209 kts 299°
2026-04-23 12:55 33.25633 -111.87144 5927 ft 212 kts 299°
2026-04-23 12:55 33.26389 -111.88642 5776 ft 210 kts 299°
2026-04-23 12:55 33.27142 -111.90138 5505 ft 211 kts 299°
2026-04-23 12:56 33.27908 -111.91640 5260 ft 211 kts 299°
2026-04-23 12:56 33.28661 -111.93126 5040 ft 210 kts 299°
2026-04-23 12:56 33.29414 -111.94614 4981 ft 207 kts 299°
2026-04-23 12:56 33.30159 -111.96081 4984 ft 206 kts 300°
2026-04-23 12:57 33.31036 -111.97416 4988 ft 207 kts 316°
2026-04-23 12:57 33.32319 -111.98202 4976 ft 214 kts 347°
2026-04-23 12:57 33.33816 -111.98244 4964 ft 217 kts 359°
2026-04-23 12:57 33.35325 -111.98183 4990 ft 216 kts 358°
2026-04-23 12:58 33.36858 -111.98100 4968 ft 218 kts 359°
2026-04-23 12:58 33.38363 -111.98004 4971 ft 218 kts 359°
2026-04-23 12:58 33.39874 -111.97906 4981 ft 218 kts 359°
2026-04-23 12:58 33.41402 -111.97786 4975 ft 218 kts 360°
2026-04-23 12:59 33.42897 -111.97660 4975 ft 217 kts
2026-04-23 12:59 33.44403 -111.97546 4992 ft 215 kts 359°
2026-04-23 12:59 33.45884 -111.97451 4984 ft 210 kts 360°
2026-04-23 12:59 33.47341 -111.97327 4960 ft 206 kts
2026-04-23 13:00 33.48677 -111.96796 4972 ft 203 kts 24°
2026-04-23 13:00 33.49898 -111.95977 4892 ft 199 kts 26°
2026-04-23 13:00 33.51093 -111.95138 4683 ft 196 kts 26°
2026-04-23 13:00 33.52257 -111.94331 4441 ft 193 kts 25°
2026-04-23 13:01 33.53428 -111.93559 4175 ft 190 kts 24°
2026-04-23 13:01 33.54606 -111.92849 3930 ft 187 kts 21°
2026-04-23 13:01 33.55777 -111.92198 3691 ft 184 kts 19°
2026-04-23 13:01 33.56940 -111.91602 3444 ft 181 kts 17°
2026-04-23 13:02 33.58126 -111.91075 3183 ft 180 kts 16°
2026-04-23 13:02 33.59270 -111.90559 3057 ft 173 kts 20°
2026-04-23 13:02 33.60259 -111.89790 3022 ft 168 kts 40°
2026-04-23 13:02 33.61075 -111.88803 2982 ft 160 kts 40°
2026-04-23 13:03 33.61837 -111.87934 2811 ft 142 kts 39°
2026-04-23 13:03 33.62522 -111.87167 2608 ft 130 kts 37°
2026-04-23 13:03 33.63328 -111.87064 2384 ft 121 kts 329°
2026-04-23 13:03 33.63928 -111.87766 2186 ft 121 kts 312°
2026-04-23 13:04 33.64112 -111.88709 2021 ft 123 kts 252°
2026-04-23 13:04 33.63604 -111.89522 1762 ft 121 kts 225°
2026-04-23 13:04 33.63021 -111.90208 1529 ft 114 kts 224°
2026-04-23 13:04 33.62506 -111.90803 1481 ft 77 kts 225°
2026-04-23 13:05 33.62253 -111.91094 1471 ft 24 kts 223°
2026-04-23 13:05 33.62240 -111.91187 1469 ft 12 kts 307°
2026-04-23 13:05 33.62207 -111.91263 1467 ft 12 kts 225°
2026-04-23 13:05 33.62136 -111.91345 1464 ft 15 kts 224°
2026-04-23 13:06 33.62019 -111.91521 1458 ft 10 kts 283°
2026-04-23 13:06 33.62020 -111.91568 1458 ft 1 kts 300°
2026-04-23 13:06 33.62022 -111.91572 1458 ft 0 kts 313°